Theta_e
317 319 320 321 323 319 319 319 316 313 311 308 306 309 309 310 311 314 315 315 315 315 316 317 316 315 316 318 319 319 319 317 316 313 310 307 310 311 311 310 309 308 308
317 319 319 320 322 321 318 320 318 314 312 310 306 308 309 309 311 313 315 315 314 315 316 316 315 316 316 318 318 319 318 317 316 316 310 308 309 311 310 309 309 309 308
319 319 320 321 322 321 318 320 319 316 312 310 306 307 309 309 310 312 314 315 314 315 316 317 315 316 316 317 319 318 317 317 315 315 313 310 309 309 310 309 309 307 308
319 318 319 319 320 319 318 319 319 317 313 311 307 306 309 310 310 311 313 314 314 315 316 317 315 315 316 317 318 317 316 315 314 313 312 311 308 308 310 308 308 308 308
320 318 318 318 318 320 318 318 319 318 314 311 308 305 308 310 310 310 312 314 314 315 316 316 316 315 315 316 316 317 313 313 312 312 312 311 307 308 309 309 309 309 309
320 318 318 318 318 319 318 317 319 318 315 311 308 305 307 309 309 310 311 313 314 315 316 316 316 316 317 316 315 314 314 313 312 311 312 309 308 308 308 309 310 310 309
319 319 319 317 317 319 318 316 318 318 315 311 309 305 306 309 310 309 311 312 314 314 315 316 316 316 316 316 315 313 312 312 311 310 310 309 309 308 307 308 309 308 307
319 319 318 318 317 318 318 316 318 318 315 312 309 306 306 308 310 309 310 312 314 314 314 315 316 316 316 315 313 314 313 312 311 310 309 309 308 308 308 307 307 308 308
318 318 318 317 317 317 317 316 317 317 314 311 310 306 305 307 309 309 310 311 313 314 314 314 315 316 316 316 313 314 313 312 311 311 310 309 309 309 309 309 309 309 309
317 317 317 316 316 315 316 315 317 317 315 312 309 306 305 307 309 310 309 311 312 313 314 314 314 315 316 315 313 314 314 313 313 311 311 311 311 310 310 310 310 310 310
314 314 314 314 314 314 313 315 316 316 314 312 309 306 305 307 308 309 309 310 311 312 313 313 314 315 315 315 314 314 314 314 313 312 311 312 312 312 311 310 310 311 311
311 312 312 312 312 312 312 314 315 315 313 311 309 306 305 306 308 309 309 309 310 311 312 312 314 315 315 315 314 313 313 313 313 313 312 312 312 312 311 311 311 311 310
309 309 310 310 310 311 311 312 314 314 313 311 309 306 305 306 308 309 309 309 309 309 310 311 313 314 314 314 314 313 313 313 312 312 311 311 311 312 311 311 311 310 309
308 309 309 309 309 310 310 312 314 314 313 311 310 307 305 305 307 308 309 309 309 309 309 310 312 313 314 313 312 312 312 312 311 311 310 310 310 310 311 311 311 309 309
308 308 308 308 309 309 310 312 313 315 316 314 312 310 306 304 305 306 308 309 309 309 308 309 310 312 312 312 312 312 311 311 310 310 309 309 308 309 309 310 310 310 308
306 307 308 308 309 310 311 311 312 314 315 314 313 312 310 307 304 305 306 308 309 308 307 307 309 310 311 311 311 311 311 310 309 309 308 308 309 309 309 309 310 310 309
306 306 306 307 308 309 310 311 311 311 311 312 312 311 310 310 306 304 306 307 308 308 307 306 308 309 309 310 310 309 309 309 308 308 308 308 308 309 309 309 308 308 308
300 305 306 306 306 307 308 309 310 311 312 311 311 310 309 307 306 305 305 307 308 307 306 306 307 308 307 308 308 308 308 308 308 307 307 307 308 308 308 307 307 307 308
296 299 301 306 306 306 306 307 308 309 310 311 311 311 309 308 306 305 305 306 307 307 306 306 306 307 307 307 307 307 307 307 307 307 307 307 307 307 306 306 306 306 308
294 295 297 299 302 306 306 306 306 307 309 309 310 311 310 308 307 305 304 305 305 306 306 306 306 306 306 307 307 307 306 307 307 306 306 307 306 306 306 305 305 306 308
293 293 295 295 298 299 302 305 306 307 307 307 308 309 310 310 310 309 306 304 304 305 305 305 305 305 305 306 306 307 306 306 306 306 306 306 306 305 305 305 305 305 308
293 293 293 294 295 296 299 298 300 303 304 305 306 307 306 307 308 308 308 306 304 304 304 304 305 305 305 305 305 305 306 307 306 305 305 305 305 305 305 305 304 304 305
294 294 294 294 294 295 296 298 299 298 299 302 303 304 305 306 307 307 307 307 306 305 304 303 303 303 304 304 304 305 305 305 305 305 306 305 304 304 304 304 304 304 304
293 294 294 294 294 294 294 296 296 298 298 298 299 302 304 305 306 307 307 308 307 307 307 307 306 305 304 303 303 303 304 304 304 305 304 304 305 304 303 303 303 303 303
293 293 294 294 294 294 294 295 296 296 297 298 298 298 299 301 302 304 305 306 306 307 308 308 308 308 308 308 306 304 303 302 303 304 304 303 304 304 303 302 302 303 303
291 292 291 292 294 295 294 295 295 296 296 297 297 298 297 297 298 298 300 301 302 304 305 306 307 308 308 308 309 308 307 304 302 302 303 303 303 302 302 302 301 301 302
Wind_Speed
60 58 54 52 49 47 48 46 41 39 37 36 35 33 32 31 29 28 26 23 21 19 19 21 24 28 32 35 32 31 27 25 24 23 19 19 18 15 16 14 12 10 7
60 56 53 51 50 47 48 47 43 40 39 38 36 35 33 33 31 30 28 26 22 21 20 21 27 31 32 33 29 28 18 17 13 19 21 21 19 18 16 13 10 7 3
57 54 52 51 50 47 46 47 45 42 40 39 38 37 36 34 33 31 29 27 23 21 21 24 29 33 35 34 32 23 18 18 12 14 18 21 20 19 16 13 9 7 5
57 55 52 51 49 44 44 47 46 43 42 41 40 38 36 34 33 32 30 28 25 22 23 25 29 32 33 32 29 24 18 19 16 16 18 20 19 20 17 13 10 9 6
53 55 51 48 46 44 44 46 45 44 42 42 40 39 36 35 35 34 32 30 27 26 26 26 27 28 29 27 24 24 18 13 15 16 18 20 20 21 19 15 12 10 7
47 48 48 46 44 45 43 44 45 44 43 42 42 40 38 37 35 35 33 32 30 29 30 29 27 28 30 28 19 15 12 9 11 15 19 18 18 19 19 16 12 10 7
43 43 44 45 43 44 43 43 46 46 44 43 42 41 39 37 35 35 34 33 32 31 32 33 31 30 30 28 22 17 14 11 7 5 11 14 15 16 16 15 12 8 9
40 41 42 42 41 43 42 43 46 46 45 45 43 41 40 37 36 35 34 34 33 31 32 33 34 34 33 30 24 21 18 15 12 12 11 10 13 13 11 10 9 9 10
37 39 39 37 40 42 42 43 45 46 46 45 43 42 40 37 36 35 35 35 34 33 32 32 33 35 34 34 28 23 20 17 15 16 16 15 15 14 13 12 12 12 11
34 35 34 35 38 39 41 42 45 46 46 45 43 41 39 38 37 36 36 36 35 34 33 32 32 34 36 36 32 26 21 17 14 16 16 14 14 13 13 12 13 12 11
25 26 28 31 35 35 39 42 46 47 46 44 42 41 39 37 37 36 35 36 36 36 35 34 34 34 35 35 33 29 22 17 16 15 15 15 12 14 13 11 14 13 10
20 22 25 28 32 35 38 42 44 47 46 44 42 40 38 37 35 35 34 34 33 34 34 32 32 34 34 35 33 28 24 20 18 17 17 17 16 17 15 14 14 11 9
17 20 22 24 29 33 37 42 44 46 46 44 43 41 39 38 36 34 33 31 30 31 28 28 30 32 33 33 33 31 28 25 23 22 21 19 17 15 15 13 12 12 11
13 17 19 23 27 31 35 38 42 45 45 44 43 41 40 39 38 36 34 32 31 28 26 26 30 32 34 34 34 33 31 28 25 22 21 19 20 20 18 16 14 15 11
13 15 16 20 25 28 31 35 38 40 41 42 41 41 41 41 41 39 38 36 34 31 29 29 31 33 36 37 36 35 32 30 27 24 22 21 20 20 20 18 16 17 14
8 13 17 20 23 26 29 32 35 38 39 38 37 36 35 36 36 36 35 33 32 31 32 34 35 37 38 39 37 35 33 31 28 26 24 22 22 21 21 19 19 17 17
5 8 11 15 19 23 26 30 34 36 38 37 36 34 31 30 30 32 34 33 33 32 33 35 38 39 38 38 38 36 35 32 28 27 26 24 23 23 22 22 20 18 19
12 5 8 12 12 15 19 24 27 32 34 33 32 31 28 27 26 29 32 34 36 35 34 34 37 38 38 38 37 36 34 31 30 29 27 26 25 24 24 22 22 20 19
13 12 7 7 13 13 14 15 17 21 25 27 31 32 30 29 26 26 30 37 40 38 34 33 33 34 36 36 36 34 33 32 30 29 28 27 27 26 25 23 22 22 20
9 9 8 8 5 13 17 17 18 19 20 22 25 29 31 31 33 34 34 36 37 38 36 34 33 32 33 35 35 34 34 33 31 31 30 29 28 27 26 25 24 23 23
6 6 6 5 5 5 6 15 20 21 22 22 23 25 26 29 33 35 36 37 38 38 37 34 32 32 32 33 35 36 35 34 33 33 32 31 31 29 28 26 26 25 23
5 4 2 1 1 2 4 5 8 15 20 23 25 25 25 26 30 33 35 36 35 35 34 32 32 32 31 32 33 34 36 36 37 35 35 34 33 32 30 30 29 29 27
6 7 7 5 4 4 4 5 6 6 10 14 20 25 28 29 29 30 32 32 32 32 31 31 31 32 33 34 34 33 33 32 32 34 37 37 37 36 35 35 34 34 32
9 8 11 12 10 8 8 8 8 8 8 9 12 17 22 27 29 30 31 31 32 33 33 33 33 33 33 33 34 35 35 32 32 32 34 35 37 37 37 38 37 38 35
14 12 11 12 14 13 12 12 11 11 12 11 10 12 15 18 21 24 26 28 30 32 34 35 36 36 36 35 35 34 33 33 33 34 34 35 36 36 37 37 38 36 36
16 14 13 11 12 14 15 16 15 15 14 14 14 14 14 14 15 17 19 21 23 25 28 30 33 34 35 36 36 36 35 34 33 35 35 36 35 35 36 37 37 36 36
Wind_Direction
221 221 220 221 220 221 214 213 213 212 208 205 201 199 197 195 191 190 188 189 187 188 188 189 182 183 180 185 184 193 189 175 163 164 172 164 164 168 163 166 169 174 189
218 219 220 221 220 220 215 212 212 211 208 206 202 200 198 197 194 192 190 190 190 189 186 183 180 178 180 184 193 191 185 186 207 185 175 172 176 175 178 175 178 182 198
214 216 219 218 219 218 215 211 209 210 207 205 203 202 199 198 195 194 193 192 191 193 189 181 180 178 182 188 190 195 196 202 206 207 198 186 183 182 181 180 179 168 125
211 214 216 217 218 216 214 210 208 207 206 205 203 203 201 199 197 195 193 194 192 192 189 184 182 182 187 189 188 190 198 213 218 220 206 194 190 184 182 180 172 162 166
206 211 211 214 216 215 214 210 207 207 205 205 203 202 201 200 198 196 194 193 191 189 186 183 183 180 181 179 180 189 197 205 222 216 203 196 191 187 181 174 174 185 192
198 205 207 212 212 212 213 209 206 206 205 203 203 202 200 200 199 199 197 194 192 190 186 185 184 181 183 184 187 196 216 224 218 209 197 198 194 189 186 187 192 211 236
200 202 203 212 213 212 212 209 206 205 203 202 203 202 201 201 198 199 198 197 195 193 191 189 186 187 190 199 200 197 198 191 198 221 200 195 193 190 195 203 216 232 256
201 199 204 206 214 212 210 207 205 204 203 201 201 202 201 200 198 198 198 198 199 198 197 195 194 192 192 195 195 191 190 187 178 168 180 187 187 194 200 210 223 236 256
204 205 209 214 212 209 207 206 204 203 202 202 202 201 201 199 198 198 198 198 200 200 200 200 200 199 197 196 198 196 193 190 186 180 181 189 195 203 211 219 226 230 248
202 206 211 212 213 211 208 204 203 204 203 202 201 202 202 199 198 198 199 199 198 199 201 203 202 202 200 199 202 204 200 196 192 190 186 189 196 209 215 218 231 230 240
202 205 211 214 211 211 207 206 203 203 203 203 202 202 202 201 200 200 201 201 201 201 202 202 199 199 203 203 205 208 208 207 196 190 195 196 205 213 209 224 244 243 246
207 206 209 212 208 207 207 205 204 203 202 202 202 202 201 201 203 202 202 204 205 207 206 203 201 198 199 204 206 205 207 207 202 204 208 212 219 218 217 222 233 219 224
199 207 207 210 208 206 206 205 202 202 203 202 202 201 200 200 202 205 204 203 204 210 212 208 203 200 200 203 208 207 207 207 218 214 213 217 221 225 227 232 227 220 229
197 200 205 206 205 206 206 207 204 202 202 203 202 201 200 200 200 201 203 202 204 204 207 204 203 202 203 204 205 207 210 217 221 221 219 218 222 229 234 231 234 220 230
191 198 198 198 200 203 206 206 206 206 206 204 205 205 202 202 204 203 202 203 203 203 201 199 198 201 204 205 207 212 215 215 216 219 219 224 230 233 231 230 228 228 231
168 187 194 196 197 200 202 202 205 209 208 209 212 212 209 215 209 206 206 207 206 207 203 200 200 203 205 208 208 211 214 218 220 222 225 228 231 230 225 233 227 233 237
111 166 185 193 198 201 203 205 205 207 210 210 211 214 216 221 213 211 209 207 210 212 209 206 203 205 206 208 211 213 217 218 220 225 227 228 228 226 229 230 234 242 239
60 100 177 182 189 197 202 204 209 208 208 208 209 209 211 214 214 213 210 207 209 216 214 210 208 208 210 213 214 217 218 220 222 225 225 224 224 227 227 231 237 244 237
47 61 82 177 193 193 194 196 201 204 208 205 204 203 202 204 205 208 211 214 214 217 215 213 213 213 213 216 219 221 222 221 222 222 222 223 222 224 229 233 236 238 239
32 42 55 77 141 196 198 200 200 202 206 208 207 207 205 202 203 202 204 211 218 223 222 220 217 216 215 217 218 220 221 220 221 221 223 223 223 228 230 232 236 235 236
2 19 32 43 86 108 172 200 203 208 211 212 215 215 215 215 214 213 212 212 215 220 224 226 224 221 220 220 219 220 223 223 221 222 224 224 225 228 230 233 237 238 238
298 310 338 347 28 140 146 160 186 201 208 212 213 214 215 217 217 219 218 219 221 223 226 227 229 229 227 228 227 223 222 224 224 224 226 228 230 232 234 236 237 239 239
256 249 255 252 237 216 209 195 185 190 198 204 212 213 215 217 218 219 221 223 225 228 228 226 227 229 231 232 232 234 232 231 231 229 228 229 231 233 235 236 237 237 238
263 251 241 241 238 230 229 225 216 211 212 202 198 205 214 221 222 224 225 225 226 227 228 228 228 229 230 232 233 236 238 236 235 236 236 234 233 233 235 237 240 242 240
265 262 248 239 237 233 233 240 231 226 222 218 219 212 207 210 216 223 227 229 231 232 232 232 231 230 230 231 233 236 237 236 235 235 236 237 238 237 236 237 239 241 237
258 260 264 259 242 233 232 232 234 232 233 232 229 227 226 224 222 220 222 227 230 232 235 235 234 234 234 233 233 234 235 234 233 232 232 235 237 238 236 236 237 239 239